1537801200.96,25923,0.13,73368.0,-7.59,-8.29,-8.17,0,*59
1537801202.16,25924,0.13,73372.8,-7.59,-8.29,-8.17,0,*5E
1537801203.35,25925,0.13,73386.3,-7.59,-8.25,-8.17,0,*53
1537801204.57,25926,0.13,73390.3,-7.57,-8.29,-8.25,0,*53
1537801205.79,25927,0.13,73390.0,-7.57,-8.29,-8.25,0,*52
1537801207.01,25928,0.13,73412.0,-7.57,-8.25,-8.17,0,*50
1537801208.23,25929,0.13,73418.0,-7.57,-8.29,-8.17,0,*5D
1537801209.42,25930,0.13,73414.5,-7.59,-8.29,-8.17,0,*5B
1537801210.65,25931,0.13,73414.3,-7.55,-8.21,-8.21,0,*5B
1537801211.87,25932,0.13,73416.0,-7.59,-8.17,-8.11,0,*52
1537801213.12,25933,0.13,73426.5,-7.57,-8.11,-8.17,0,*5D
1537801214.34,25934,0.13,73428.0,-7.59,-8.17,-8.11,0,*54
1537801215.54,25935,0.13,73452.8,-7.59,-8.25,-8.17,0,*52
1537801216.73,25936,0.13,73464.3,-7.59,-8.29,-8.29,0,*50
1537801217.93,25937,0.13,73464.5,-7.59,-8.29,-8.25,0,*5D
1537801219.13,25938,0.13,73462.5,-7.59,-8.37,-8.25,0,*5D
1537801220.35,25939,0.13,73458.5,-7.57,-8.25,-8.25,0,*51
1537801221.56,25940,0.19,73460.3,-7.57,-8.29,-8.17,0,*52
1537801222.82,25941,0.13,73456.8,-7.55,-8.25,-8.11,0,*5B
1537801224.04,25942,0.19,73460.8,-7.57,-8.25,-8.17,0,*5C
1537801225.26,25943,0.13,73464.0,-7.57,-8.25,-8.17,0,*5D
1537801226.47,25944,0.13,73456.8,-7.55,-8.33,-8.17,0,*5F
1537801227.7,25945,0.19,73458.5,-7.57,-8.41,-8.29,0,*54
1537801228.91,25946,0.13,73452.3,-7.57,-8.29,-8.25,0,*55
1537801230.16,25947,0.13,73450.3,-7.55,-8.25,-8.11,0,*5D
1537801231.38,25948,0.13,73444.8,-7.57,-8.25,-8.17,0,*56
1537801232.64,25949,0.13,73450.5,-7.55,-8.25,-8.11,0,*53
1537801233.86,25950,0.13,73442.8,-7.57,-8.37,-8.25,0,*5D
1537801235.08,25951,0.13,73436.0,-7.55,-8.25,-8.25,0,*5D
1537801236.3,25952,0.13,73448.3,-7.57,-8.37,-8.29,0,*53
1537801237.53,25953,0.19,73446.0,-7.57,-8.37,-8.25,0,*5E
1537801238.75,25954,0.13,73444.3,-7.57,-8.37,-8.29,0,*55
1537801239.96,25955,0.13,73420.8,-7.55,-8.33,-8.33,0,*59
1537801241.19,25956,0.19,73418.0,-7.57,-8.41,-8.37,0,*59
1537801242.41,25957,0.19,73396.8,-7.57,-8.41,-8.41,0,*59
1537801243.63,25958,0.19,73388.5,-7.57,-8.45,-8.41,0,*52
1537801244.85,25959,0.19,73386.5,-7.57,-8.45,-8.41,0,*53
1537801246.08,25960,0.13,73382.8,-7.57,-8.45,-8.37,0,*58
1537801247.3,25961,0.19,73390.8,-7.57,-8.55,-8.41,0,*59
1537801248.53,25962,0.19,73392.0,-7.57,-8.59,-8.45,0,*52
1537801249.73,25963,0.19,73390.5,-7.59,-8.55,-8.45,0,*51
1537801250.93,25964,0.19,73386.5,-7.59,-8.55,-8.45,0,*56
1537801252.13,25965,0.19,73388.0,-7.59,-8.45,-8.45,0,*56
1537801253.36,25966,0.19,73388.5,-7.57,-8.55,-8.45,0,*5A
1537801254.56,25967,0.13,73384.5,-7.59,-8.45,-8.37,0,*51
1537801255.76,25968,0.19,73392.0,-7.59,-8.37,-8.25,0,*58
1537801256.95,25969,0.19,73392.3,-7.59,-8.29,-8.29,0,*5A
1537801258.15,25970,0.13,73396.5,-7.59,-8.29,-8.25,0,*5E
1537801259.34,25971,0.19,73408.8,-7.59,-8.37,-8.25,0,*50
1537801260.54,25972,0.19,73402.5,-7.59,-8.37,-8.29,0,*5F
1537801261.76,25973,0.19,73408.5,-7.61,-8.45,-8.33,0,*5B
1537801262.95,25974,0.19,73410.5,-7.59,-8.41,-8.25,0,*54
1537801264.15,25975,0.19,73414.5,-7.59,-8.37,-8.29,0,*58
1537801265.35,25976,0.19,73412.5,-7.59,-8.37,-8.29,0,*5B
1537801266.55,25977,0.19,73408.3,-7.59,-8.37,-8.29,0,*5A
1537801267.77,25978,0.19,73416.5,-7.57,-8.37,-8.25,0,*57
1537801268.99,25979,0.19,73416.8,-7.57,-8.37,-8.29,0,*5A
1537801270.19,25980,0.19,73414.8,-7.59,-8.37,-8.29,0,*52
1537801271.38,25981,0.19,73414.3,-7.59,-8.41,-8.25,0,*5E
1537801272.58,25982,0.19,73412.5,-7.59,-8.37,-8.29,0,*50
1537801273.77,25983,0.19,73410.8,-7.59,-8.29,-8.25,0,*52
1537801274.97,25984,0.19,73408.5,-7.59,-8.41,-8.25,0,*5B
1537801276.17,25985,0.19,73414.8,-7.59,-8.37,-8.25,0,*5B
1537801277.37,25986,0.19,73416.5,-7.59,-8.25,-8.17,0,*5A
1537801278.56,25987,0.19,73414.8,-7.59,-8.29,-8.17,0,*57
1537801279.76,25988,0.19,73416.0,-7.59,-8.29,-8.25,0,*59
1537801280.97,25989,0.19,73412.0,-7.57,-8.29,-8.17,0,*57
1537801282.19,25990,0.19,73404.3,-7.57,-8.29,-8.17,0,*5F
1537801283.44,25991,0.19,73406.8,-7.57,-8.17,-8.11,0,*55
1537801284.69,25992,0.19,73412.0,-7.57,-8.25,-8.11,0,*57
1537801285.93,25993,0.19,73416.0,-7.57,-8.17,-8.11,0,*57
1537801287.15,25994,0.19,73410.3,-7.57,-8.25,-8.17,0,*57
1537801288.4,25995,0.19,73408.8,-7.57,-8.17,-8.11,0,*51
1537801289.62,25996,0.19,73402.0,-7.57,-8.17,-8.17,0,*54
1537801290.88,25997,0.19,73420.5,-7.55,-8.17,-8.07,0,*56
1537801292.14,25998,0.19,73426.3,-7.55,-8.21,-8.07,0,*5C
1537801293.36,25999,0.19,73412.8,-7.57,-8.25,-8.17,0,*5A
1537801294.61,26000,0.19,73398.0,-7.55,-8.21,-8.11,0,*50
1537801295.82,26001,0.19,73388.5,-7.57,-8.29,-8.25,0,*5C
1537801297.04,26002,0.19,73394.0,-7.57,-8.25,-8.25,0,*53
1537801298.29,26003,0.19,73394.0,-7.57,-8.29,-8.11,0,*59
1537801299.54,26004,0.19,73394.0,-7.57,-8.29,-8.11,0,*5E
1537801300.78,26005,0.19,73404.5,-7.55,-8.21,-8.11,0,*55
1537801302.04,26006,0.19,73388.3,-7.55,-8.21,-8.07,0,*51
1537801303.3,26007,0.19,73380.3,-7.55,-8.21,-8.07,0,*50
1537801304.54,26008,0.19,73364.3,-7.57,-8.25,-8.11,0,*5E
1537801305.77,26009,0.19,73356.8,-7.55,-8.25,-8.21,0,*5E
1537801307.0,26010,0.19,73362.8,-7.55,-8.25,-8.21,0,*56
1537801308.22,26011,0.19,73372.3,-7.57,-8.29,-8.25,0,*5D
1537801309.44,26012,0.19,73386.5,-7.55,-8.37,-8.25,0,*53
1537801310.66,26013,0.19,73410.5,-7.57,-8.37,-8.29,0,*5C
1537801311.89,26014,0.19,73398.5,-7.55,-8.37,-8.25,0,*55
1537801313.12,26015,0.19,73402.8,-7.57,-8.41,-8.37,0,*54
1537801314.34,26016,0.19,73396.3,-7.55,-8.37,-8.25,0,*57
1537801315.56,26017,0.19,73420.5,-7.55,-8.37,-8.33,0,*51
1537801316.78,26018,0.19,73432.3,-7.57,-8.41,-8.25,0,*5A
1537801318.0,26019,0.19,73436.5,-7.55,-8.33,-8.25,0,*5C
1537801319.22,26020,0.19,73454.5,-7.57,-8.37,-8.25,0,*50
1537801320.44,26021,0.19,73466.8,-7.55,-8.33,-8.21,0,*53
1537801321.67,26022,0.19,73464.8,-7.55,-8.33,-8.21,0,*50
1537801322.89,26023,0.19,73464.0,-7.55,-8.33,-8.21,0,*51
1537801324.1,26024,0.19,73472.8,-7.55,-8.33,-8.25,0,*52
1537801325.32,26025,0.19,73464.3,-7.57,-8.41,-8.29,0,*58
1537801326.54,26026,0.25,73468.0,-7.55,-8.33,-8.25,0,*50
1537801327.78,26027,0.19,73462.8,-7.55,-8.37,-8.37,0,*56
1537801328.99,26028,0.19,73460.0,-7.55,-8.33,-8.33,0,*59
1537801330.22,26029,0.25,73442.3,-7.55,-8.37,-8.37,0,*58
1537801331.45,26030,0.19,73452.8,-7.55,-8.41,-8.41,0,*50
1537801332.67,26031,0.25,73418.5,-7.57,-8.45,-8.45,0,*53
1537801333.9,26032,0.19,73490.5,-7.57,-8.45,-8.45,0,*50
1537801335.12,26033,0.19,73494.5,-7.57,-8.45,-8.41,0,*55
1537801336.35,26034,0.19,73480.5,-7.55,-8.41,-8.37,0,*55
1537801337.57,26035,0.19,73508.3,-7.57,-8.45,-8.41,0,*53
1537801338.8,26036,0.19,73474.5,-7.57,-8.45,-8.37,0,*51
1537801340.02,26037,0.19,73496.8,-7.57,-8.45,-8.41,0,*51
1537801341.25,26038,0.19,73456.5,-7.57,-8.55,-8.45,0,*5B
1537801342.47,26039,0.19,73482.8,-7.57,-8.45,-8.45,0,*5B
1537801343.69,26040,0.19,73444.5,-7.57,-8.45,-8.45,0,*55
1537801344.92,26041,0.19,73446.0,-7.55,-8.37,-8.41,0,*57
1537801346.15,26042,0.19,73488.5,-7.57,-8.41,-8.37,0,*56
1537801347.4,26043,0.19,73474.0,-7.55,-8.51,-8.37,0,*54
1537801348.63,26044,0.19,73460.3,-7.57,-8.45,-8.41,0,*55
1537801349.85,26045,0.19,73432.0,-7.57,-8.45,-8.41,0,*54
1537801351.08,26046,0.19,73428.5,-7.57,-8.41,-8.37,0,*52
1537801352.3,26047,0.19,73432.8,-7.57,-8.41,-8.37,0,*53
1537801353.52,26048,0.19,73430.0,-7.57,-8.41,-8.29,0,*53
1537801354.74,26049,0.19,73430.3,-7.57,-8.29,-8.25,0,*50
1537801355.96,26050,0.19,73424.0,-7.57,-8.29,-8.25,0,*58
1537801357.18,26051,0.19,73422.5,-7.57,-8.25,-8.17,0,*54
1537801358.42,26052,0.19,73414.3,-7.57,-8.29,-8.11,0,*5D
1537801359.64,26053,0.19,73408.3,-7.57,-8.29,-8.25,0,*5B
1537801360.86,26054,0.19,73412.5,-7.57,-8.37,-8.25,0,*53
1537801362.08,26055,0.19,73420.0,-7.57,-8.37,-8.29,0,*5E
1537801363.3,26056,0.19,73426.8,-7.57,-8.37,-8.25,0,*51
1537801364.52,26057,0.19,73430.8,-7.57,-8.29,-8.25,0,*5F
1537801365.74,26058,0.25,73442.5,-7.57,-8.29,-8.17,0,*51
1537801366.96,26059,0.19,73442.0,-7.57,-8.25,-8.17,0,*5C
1537801368.18,26060,0.19,73432.3,-7.57,-8.25,-8.17,0,*56
1537801369.43,26061,0.19,73420.5,-7.55,-8.21,-8.11,0,*57
1537801370.65,26062,0.19,73450.3,-7.57,-8.25,-8.17,0,*54
1537801371.9,26063,0.19,73450.5,-7.55,-8.25,-8.11,0,*51
1537801373.12,26064,0.19,73466.5,-7.57,-8.25,-8.25,0,*53
1537801374.35,26065,0.19,73476.3,-7.55,-8.25,-8.21,0,*54
1537801375.58,26066,0.19,73476.8,-7.55,-8.37,-8.37,0,*53
1537801376.83,26067,0.25,73468.3,-7.55,-8.51,-8.41,0,*53
1537801378.06,26068,0.19,73458.8,-7.57,-8.71,-8.59,0,*55
1537801379.28,26069,0.19,73448.8,-7.57,-8.59,-8.45,0,*53
1537801380.53,26070,0.19,73444.8,-7.55,-8.51,-8.41,0,*55
1537801381.76,26071,0.19,73422.3,-7.57,-8.55,-8.45,0,*56
1537801382.97,26072,0.19,73392.5,-7.57,-8.59,-8.59,0,*54
1537801384.19,26073,0.19,73374.5,-7.57,-8.67,-8.59,0,*58
1537801385.41,26074,0.19,73388.5,-7.57,-8.71,-8.59,0,*58
1537801386.62,26075,0.19,73392.5,-7.57,-8.59,-8.55,0,*5F
1537801387.84,26076,0.19,73384.0,-7.57,-8.59,-8.55,0,*5C
1537801389.06,26077,0.19,73372.3,-7.57,-8.59,-8.45,0,*5C
1537801390.28,26078,0.19,73386.8,-7.57,-8.59,-8.45,0,*53
1537801391.5,26079,0.19,73382.0,-7.57,-8.55,-8.55,0,*5F
1537801392.69,26080,0.19,73384.5,-7.59,-8.59,-8.55,0,*5B
1537801393.88,26081,0.19,73388.0,-7.59,-8.67,-8.55,0,*57
1537801395.1,26082,0.19,73372.5,-7.61,-8.71,-8.59,0,*54
1537801396.31,26083,0.19,73360.5,-7.61,-8.75,-8.63,0,*58
1537801397.51,26084,0.19,73360.3,-7.59,-8.71,-8.63,0,*50
1537801398.71,26085,0.19,73400.0,-7.59,-8.59,-8.45,0,*5F
1537801399.92,26086,0.19,73388.3,-7.61,-8.75,-8.63,0,*5D
1537801401.15,26087,0.19,73374.8,-7.61,-8.85,-8.71,0,*50
1537801402.37,26088,0.19,73390.8,-7.61,-8.89,-8.71,0,*53
1537801403.59,26089,0.19,73420.8,-7.61,-8.71,-8.59,0,*5F
1537801404.83,26090,0.19,73412.3,-7.61,-8.63,-8.51,0,*5C
1537801406.07,26091,0.19,73400.8,-7.61,-8.59,-8.51,0,*54
1537801407.29,26092,0.19,73394.5,-7.61,-8.71,-8.63,0,*5C
1537801408.49,26093,0.19,73382.0,-7.59,-8.71,-8.59,0,*5F
1537801409.71,26094,0.19,73372.3,-7.61,-8.71,-8.59,0,*53
1537801410.95,26095,0.19,73378.8,-7.61,-8.59,-8.51,0,*50
1537801412.19,26096,0.19,73376.3,-7.61,-8.59,-8.51,0,*53
1537801413.46,26097,0.19,73374.8,-7.61,-8.51,-8.51,0,*5A
1537801414.73,26098,0.19,73382.5,-7.61,-8.51,-8.51,0,*55
1537801415.98,26099,0.19,73396.5,-7.61,-8.51,-8.45,0,*51
1537801417.23,26100,0.19,73396.8,-7.61,-8.51,-8.45,0,*50
1537801418.47,26101,0.25,73400.8,-7.61,-8.51,-8.41,0,*55
1537801419.72,26102,0.19,73388.0,-7.61,-8.51,-8.45,0,*52
1537801420.97,26103,0.19,73386.3,-7.65,-8.51,-8.45,0,*57
1537801422.22,26104,0.19,73374.3,-7.61,-8.51,-8.45,0,*54
1537801423.46,26105,0.19,73378.3,-7.61,-8.51,-8.41,0,*51
1537801424.71,26106,0.25,73376.5,-7.61,-8.51,-8.45,0,*56
1537801425.95,26107,0.19,73372.8,-7.61,-8.51,-8.41,0,*53
1537801427.2,26108,0.19,73370.5,-7.61,-8.51,-8.45,0,*58
1537801428.45,26109,0.19,73374.8,-7.61,-8.51,-8.45,0,*59
1537801429.7,26110,0.19,73372.5,-7.61,-8.51,-8.45,0,*51
1537801430.94,26111,0.19,73372.0,-7.61,-8.51,-8.45,0,*50
1537801432.16,26112,0.19,73378.8,-7.61,-8.59,-8.45,0,*5B
1537801433.4,26113,0.19,73382.8,-7.61,-8.51,-8.41,0,*56
1537801434.61,26114,0.19,73386.5,-7.59,-8.41,-8.37,0,*5A
1537801435.85,26115,0.19,73388.8,-7.61,-8.51,-8.33,0,*55
1537801437.06,26116,0.19,73386.8,-7.61,-8.41,-8.33,0,*57
1537801438.27,26117,0.19,73388.5,-7.61,-8.33,-8.29,0,*58
1537801439.49,26118,0.19,73394.3,-7.61,-8.29,-8.21,0,*54
1537801440.7,26119,0.19,73392.8,-7.61,-8.33,-8.29,0,*56
1537801441.91,26120,0.19,73384.3,-7.61,-8.29,-8.29,0,*57
1537801443.13,26121,0.19,73390.3,-7.61,-8.33,-8.21,0,*55
1537801444.34,26122,0.19,73398.5,-7.61,-8.29,-8.29,0,*55
1537801445.55,26123,0.19,73396.8,-7.61,-8.33,-8.29,0,*5F
1537801446.75,26124,0.19,73398.8,-7.59,-8.25,-8.17,0,*59
1537801447.96,26125,0.19,73402.8,-7.61,-8.33,-8.21,0,*51
1537801449.18,26126,0.19,73398.8,-7.61,-8.29,-8.21,0,*59
1537801450.39,26127,0.19,73398.8,-7.61,-8.33,-8.21,0,*53
1537801451.61,26128,0.19,73400.3,-7.61,-8.33,-8.21,0,*5C
1537801452.82,26129,0.19,73396.8,-7.61,-8.33,-8.29,0,*55
1537801454.02,26130,0.19,73390.3,-7.61,-8.33,-8.33,0,*56
1537801455.24,26131,0.19,73392.8,-7.61,-8.33,-8.21,0,*54
1537801456.45,26132,0.19,73392.0,-7.61,-8.33,-8.29,0,*5F
1537801457.67,26133,0.19,73394.5,-7.61,-8.37,-8.25,0,*56
1537801458.88,26134,0.19,73392.8,-7.61,-8.29,-8.25,0,*5E
1537801460.09,26135,0.19,73392.3,-7.61,-8.29,-8.17,0,*5E
1537801461.31,26136,0.19,73390.3,-7.61,-8.33,-8.21,0,*53
1537801462.52,26137,0.19,73390.5,-7.61,-8.33,-8.29,0,*5A
1537801463.73,26138,0.19,73392.0,-7.61,-8.29,-8.17,0,*53
1537801464.95,26139,0.19,73382.8,-7.61,-8.21,-8.17,0,*5A
1537801466.16,26140,0.19,73390.3,-7.61,-8.21,-8.21,0,*51
1537801467.39,26141,0.19,73392.3,-7.59,-8.17,-8.11,0,*5D
1537801468.6,26142,0.19,73398.3,-7.61,-8.21,-8.17,0,*56
1537801469.82,26143,0.19,73400.0,-7.61,-8.21,-8.21,0,*52
1537801471.02,26144,0.19,73402.5,-7.59,-8.25,-8.17,0,*5F
1537801472.22,26145,0.19,73404.5,-7.59,-8.25,-8.25,0,*5F
1537801473.44,26146,0.19,73410.3,-7.59,-8.25,-8.11,0,*5B
1537801474.66,26147,0.19,73408.3,-7.59,-8.25,-8.11,0,*5A
1537801475.89,26148,0.19,73400.8,-7.59,-8.17,-8.11,0,*54
1537801477.11,26149,0.19,73404.5,-7.59,-8.17,-8.11,0,*55
1537801478.33,26150,0.19,73406.8,-7.59,-8.17,-8.03,0,*5E
1537801479.53,26151,0.19,73418.8,-7.59,-8.25,-8.25,0,*5A
1537801480.72,26152,0.19,73412.0,-7.59,-8.29,-8.25,0,*55
1537801481.92,26153,0.19,73416.3,-7.59,-8.29,-8.25,0,*54
1537801483.11,26154,0.19,73420.8,-7.59,-8.29,-8.25,0,*53
1537801484.31,26155,0.19,73424.3,-7.59,-8.29,-8.25,0,*52
1537801485.5,26156,0.19,73426.5,-7.59,-8.29,-8.25,0,*51
1537801486.69,26157,0.19,73426.5,-7.59,-8.29,-8.25,0,*50
1537801487.91,26158,0.19,73428.3,-7.57,-8.29,-8.25,0,*51
1537801489.13,26159,0.19,73430.3,-7.57,-8.25,-8.17,0,*5D
1537801490.35,26160,0.19,73430.3,-7.57,-8.25,-8.17,0,*57
1537801491.57,26161,0.19,73432.5,-7.57,-8.25,-8.17,0,*56
1537801492.82,26162,0.19,73438.0,-7.57,-8.25,-8.11,0,*53
1537801494.04,26163,0.19,73438.5,-7.59,-8.25,-8.11,0,*5C
1537801495.24,26164,0.19,73432.5,-7.59,-8.17,-8.17,0,*5C
1537801496.49,26165,0.19,73432.5,-7.57,-8.17,-8.11,0,*55
1537801497.71,26166,0.19,73432.3,-7.57,-8.17,-8.17,0,*50
1537801498.96,26167,0.19,73432.0,-7.57,-8.17,-8.11,0,*57
1537801500.23,26168,0.19,73446.0,-7.57,-8.11,-8.11,0,*5E
1537801501.52,26169,0.19,73442.8,-7.55,-8.11,-8.07,0,*5A
1537801502.77,26170,0.19,73440.3,-7.57,-8.17,-8.11,0,*51
1537801504.02,26171,0.19,73430.5,-7.55,-8.21,-8.07,0,*50
1537801505.27,26172,0.19,73412.5,-7.57,-8.25,-8.11,0,*52
1537801506.49,26173,0.19,73418.3,-7.57,-8.29,-8.21,0,*5C
1537801507.71,26174,0.19,73474.0,-7.55,-8.33,-8.21,0,*52
1537801508.93,26175,0.19,73498.3,-7.57,-8.37,-8.25,0,*51
1537801510.15,26176,0.19,73454.3,-7.55,-8.37,-8.33,0,*57
1537801511.38,26177,0.19,73432.8,-7.57,-8.41,-8.41,0,*50
1537801512.6,26178,0.19,73484.3,-7.57,-8.59,-8.45,0,*52
1537801513.82,26179,0.19,73470.8,-7.57,-8.55,-8.45,0,*5F
1537801515.05,26180,0.19,73462.8,-7.57,-8.55,-8.45,0,*59
1537801516.27,26181,0.19,73466.0,-7.57,-8.55,-8.55,0,*59
1537801517.49,26182,0.19,73462.5,-7.57,-8.67,-8.45,0,*5A
1537801518.68,26183,0.19,73460.8,-7.59,-8.67,-8.55,0,*54
1537801519.87,26184,0.19,73464.0,-7.59,-8.59,-8.55,0,*5E
1537801521.06,26185,0.19,73454.5,-7.59,-8.67,-8.55,0,*52
1537801522.26,26186,0.19,73428.5,-7.59,-8.71,-8.59,0,*5A
1537801523.47,26187,0.19,73430.5,-7.59,-8.81,-8.71,0,*5E
1537801524.69,26188,0.19,73434.0,-7.59,-8.81,-8.71,0,*51
1537801525.91,26189,0.19,73450.5,-7.61,-8.71,-8.63,0,*57
1537801527.12,26190,0.19,73450.0,-7.61,-8.63,-8.59,0,*55
1537801528.37,26191,0.19,73470.8,-7.61,-8.59,-8.51,0,*55
1537801529.57,26192,0.19,73466.0,-7.59,-8.45,-8.45,0,*55
1537801530.79,26193,0.19,73430.3,-7.61,-8.71,-8.59,0,*55
1537801532.0,26194,0.19,73418.0,-7.61,-8.63,-8.59,0,*51
1537801533.22,26195,0.19,73414.3,-7.61,-8.63,-8.59,0,*50
1537801534.44,26196,0.19,73374.8,-7.61,-8.63,-8.45,0,*5E
1537801535.65,26197,0.19,73358.0,-7.61,-8.59,-8.59,0,*5B
1537801536.87,26198,0.19,73332.5,-7.61,-8.71,-8.59,0,*5E
1537801538.11,26199,0.19,73334.3,-7.61,-8.59,-8.51,0,*5D
1537801539.38,26200,0.19,73346.3,-7.61,-8.51,-8.51,0,*56
1537801540.63,26201,0.19,73366.0,-7.61,-8.51,-8.45,0,*52
1537801541.85,26202,0.19,73370.8,-7.61,-8.45,-8.41,0,*50
1537801543.07,26203,0.19,73394.0,-7.61,-8.45,-8.45,0,*55
1537801544.29,26204,0.19,73372.3,-7.61,-8.45,-8.45,0,*52
1537801545.54,26205,0.19,73388.5,-7.61,-8.51,-8.45,0,*56
1537801546.76,26206,0.19,73322.3,-7.61,-8.71,-8.59,0,*5A
1537801547.97,26207,0.19,73368.3,-7.61,-8.63,-8.59,0,*58
1537801549.17,26208,0.19,73350.3,-7.67,-8.67,-8.63,0,*5C
1537801550.38,26209,0.19,73350.3,-7.65,-8.63,-8.59,0,*52
1537801551.6,26210,0.19,73332.0,-7.65,-8.59,-8.59,0,*53
1537801552.79,26211,0.19,73328.8,-7.67,-8.63,-8.63,0,*50
1537801553.99,26212,0.19,73332.3,-7.67,-8.55,-8.55,0,*53
1537801555.2,26213,0.19,73332.0,-7.65,-8.45,-8.41,0,*54
1537801556.43,26214,0.19,73334.3,-7.65,-8.45,-8.45,0,*57
1537801557.63,26215,0.19,73340.8,-7.67,-8.45,-8.45,0,*54
1537801558.85,26216,0.19,73324.8,-7.65,-8.45,-8.45,0,*55
1537801560.07,26217,0.19,73326.8,-7.65,-8.45,-8.41,0,*50
1537801561.27,26218,0.19,73318.3,-7.67,-8.45,-8.45,0,*59
1537801562.49,26219,0.19,73318.8,-7.65,-8.45,-8.45,0,*5A
1537801563.71,26220,0.19,73328.8,-7.65,-8.45,-8.45,0,*50
1537801564.93,26221,0.19,73324.0,-7.65,-8.45,-8.41,0,*55
1537801566.18,26222,0.19,73338.8,-7.67,-8.51,-8.51,0,*50
1537801567.38,26223,0.19,73352.0,-7.67,-8.67,-8.63,0,*55
1537801568.65,26224,0.19,73362.5,-7.65,-8.51,-8.51,0,*54
1537801569.92,26225,0.19,73362.5,-7.65,-8.51,-8.51,0,*55
1537801571.11,26226,0.19,73362.3,-7.67,-8.55,-8.55,0,*54
1537801572.36,26227,0.19,73358.8,-7.65,-8.51,-8.45,0,*52
1537801573.58,26228,0.19,73364.0,-7.65,-8.59,-8.45,0,*55
1537801574.81,26229,0.19,73358.3,-7.67,-8.55,-8.51,0,*5F
1537801576.02,26230,0.19,73356.3,-7.65,-8.41,-8.41,0,*51
1537801577.24,26231,0.19,73368.0,-7.65,-8.45,-8.41,0,*54
1537801578.46,26232,0.19,73366.5,-7.65,-8.45,-8.29,0,*59
1537801579.67,26233,0.19,73364.5,-7.67,-8.45,-8.37,0,*55
1537801580.86,26234,0.19,73388.5,-7.67,-8.45,-8.33,0,*56
1537801582.08,26235,0.19,73382.8,-7.65,-8.29,-8.29,0,*54
1537801583.26,26236,0.19,73398.5,-7.67,-8.33,-8.33,0,*55
1537801584.48,26237,0.19,73406.5,-7.65,-8.29,-8.29,0,*56
1537801585.69,26238,0.19,73396.3,-7.65,-8.29,-8.17,0,*54
1537801586.91,26239,0.19,73398.0,-7.65,-8.29,-8.21,0,*50
1537801588.12,26240,0.19,73400.3,-7.65,-8.29,-8.29,0,*56
1537801589.34,26241,0.19,73408.5,-7.65,-8.21,-8.17,0,*52
1537801590.56,26242,0.19,73426.5,-7.61,-8.17,-8.17,0,*50
1537801591.84,26243,0.19,73426.5,-7.65,-8.07,-8.07,0,*55
1537801593.05,26244,0.19,73430.0,-7.65,-8.17,-8.17,0,*52
1537801594.27,26245,0.19,73430.8,-7.65,-8.21,-8.21,0,*53
1537801595.48,26246,0.19,73424.0,-7.61,-8.33,-8.29,0,*5F
1537801596.69,26247,0.19,73442.8,-7.61,-8.33,-8.33,0,*55
1537801597.9,26248,0.19,73430.0,-7.61,-8.41,-8.33,0,*5F
1537801599.1,26249,0.25,73408.3,-7.59,-8.37,-8.25,0,*53
1537801600.32,26250,0.19,73410.8,-7.61,-8.29,-8.29,0,*53
1537801601.53,26251,0.19,73412.5,-7.61,-8.29,-8.29,0,*52
1537801602.74,26252,0.19,73428.8,-7.61,-8.29,-8.17,0,*5C
1537801603.96,26253,0.19,73428.5,-7.61,-8.21,-8.17,0,*55
1537801605.16,26254,0.19,73424.0,-7.59,-8.17,-8.17,0,*5C
1537801606.35,26255,0.19,73422.5,-7.59,-8.17,-8.17,0,*5D
1537801607.6,26256,0.19,73424.3,-7.59,-8.11,-8.11,0,*5E
1537801608.84,26257,0.19,73424.8,-7.61,-8.17,-8.03,0,*51
1537801610.1,26258,0.19,73432.8,-7.59,-8.11,-8.11,0,*50
1537801611.34,26259,0.19,73434.5,-7.59,-8.11,-8.03,0,*52
1537801612.58,26260,0.19,73436.8,-7.61,-8.17,-8.03,0,*55
1537801613.83,26261,0.19,73446.8,-7.59,-8.11,-8.03,0,*59
1537801615.05,26262,0.19,73436.3,-7.59,-8.17,-8.11,0,*5F
1537801616.3,26263,0.19,73438.3,-7.59,-8.11,-8.03,0,*5B
1537801617.52,26264,0.19,73436.0,-7.59,-8.17,-8.03,0,*5A
1537801618.76,26265,0.19,73436.5,-7.59,-8.03,-8.03,0,*5E
1537801619.98,26266,0.19,73432.8,-7.61,-8.17,-8.17,0,*56
1537801621.23,26267,0.19,73438.5,-7.59,-8.11,-8.11,0,*5C
1537801622.45,26268,0.19,73446.8,-7.59,-8.17,-8.03,0,*56
1537801623.65,26269,0.19,73454.8,-7.59,-8.17,-8.25,0,*53
1537801624.84,26270,0.19,73474.8,-7.59,-8.29,-8.29,0,*5A
1537801626.04,26271,0.19,73490.3,-7.59,-8.37,-8.29,0,*54
1537801627.24,26272,0.19,73494.3,-7.59,-8.41,-8.29,0,*56
1537801628.46,26273,0.19,73492.8,-7.57,-8.41,-8.41,0,*57
1537801629.68,26274,0.19,73496.3,-7.57,-8.45,-8.41,0,*54
1537801630.91,26275,0.19,73494.5,-7.57,-8.45,-8.37,0,*54
1537801632.13,26276,0.19,73470.0,-7.57,-8.71,-8.59,0,*58
1537801633.35,26277,0.19,73448.0,-7.57,-8.85,-8.71,0,*58
1537801634.6,26278,0.19,73428.8,-7.57,-8.97,-8.81,0,*5B
1537801635.82,26279,0.19,73354.8,-7.57,-9.19,-8.97,0,*5A
1537801637.02,26280,0.19,73318.0,-7.59,-9.27,-9.23,0,*51
1537801638.24,26281,0.19,73350.0,-7.59,-9.37,-9.31,0,*52
1537801639.46,26282,0.19,73362.3,-7.61,-9.27,-9.27,0,*5C
1537801640.7,26283,0.19,73380.5,-7.61,-9.27,-9.15,0,*5C
1537801641.92,26284,0.19,73468.8,-7.67,-9.19,-9.15,0,*50
1537801643.16,26285,0.19,73478.3,-7.67,-9.15,-9.05,0,*5C
1537801644.39,26286,0.19,73534.0,-7.67,-9.15,-8.93,0,*51
1537801645.64,26287,0.19,73532.0,-7.65,-9.11,-9.01,0,*5C
1537801646.84,26288,0.19,73528.5,-7.67,-9.27,-9.19,0,*5D
1537801648.04,26289,0.19,73520.0,-7.67,-9.27,-9.19,0,*5C
1537801649.24,26290,0.19,73488.8,-7.67,-9.27,-9.19,0,*54
1537801650.44,26291,0.19,73450.3,-7.67,-9.27,-9.19,0,*55
1537801651.63,26292,0.19,73540.0,-7.71,-9.31,-9.23,0,*5F
1537801652.88,26293,0.25,73472.5,-7.69,-9.19,-9.15,0,*58
1537801654.13,26294,0.19,73506.0,-7.71,-9.37,-9.37,0,*5A
1537801655.35,26295,0.19,73450.5,-7.71,-9.37,-9.23,0,*5E
1537801656.58,26296,0.19,73436.0,-7.71,-9.11,-8.97,0,*57
1537801657.78,26297,0.19,73480.5,-7.71,-9.05,-9.05,0,*59
1537801658.97,26298,0.19,73482.8,-7.71,-9.19,-9.19,0,*56
1537801660.22,26299,0.19,73448.3,-7.73,-9.11,-9.05,0,*50
1537801661.45,26300,0.19,73402.5,-7.73,-9.05,-8.97,0,*5E
1537801662.68,26301,0.19,73382.5,-7.73,-9.05,-8.97,0,*5F
1537801663.91,26302,0.19,73462.5,-7.75,-9.15,-9.01,0,*55
1537801665.14,26303,0.19,73444.3,-7.73,-8.93,-8.85,0,*50
1537801666.39,26304,0.19,73424.0,-7.73,-8.85,-8.81,0,*54
1537801667.63,26305,0.19,73432.3,-7.73,-8.81,-8.71,0,*5E
1537801668.87,26306,0.19,73450.3,-7.73,-8.81,-8.71,0,*5D
1537801670.07,26307,0.19,73426.0,-7.75,-8.85,-8.75,0,*5A
1537801671.3,26308,0.19,73418.5,-7.73,-8.85,-8.71,0,*57
1537801672.52,26309,0.19,73410.3,-7.73,-8.85,-8.67,0,*51
1537801673.78,26310,0.19,73404.8,-7.73,-8.81,-8.81,0,*55
1537801675.03,26311,0.19,73396.0,-7.73,-8.93,-8.81,0,*57
1537801676.26,26312,0.19,73384.3,-7.75,-9.11,-9.01,0,*50
1537801677.49,26313,0.19,73376.8,-7.73,-8.97,-8.93,0,*52
1537801678.74,26314,0.19,73372.5,-7.73,-8.93,-8.81,0,*52
1537801679.93,26315,0.19,73370.3,-7.75,-8.75,-8.75,0,*56
1537801681.13,26316,0.19,73370.5,-7.75,-8.85,-8.63,0,*5D
1537801682.33,26317,0.19,73370.5,-7.75,-8.75,-8.71,0,*50
1537801683.52,26318,0.13,73372.5,-7.75,-8.75,-8.71,0,*5F
1537801684.72,26319,0.19,73376.0,-7.75,-8.71,-8.71,0,*5A
1537801685.92,26320,0.13,73376.3,-7.75,-8.85,-8.71,0,*5B
1537801687.12,26321,0.19,73376.5,-7.75,-8.75,-8.71,0,*55
1537801688.32,26322,0.19,73378.0,-7.75,-8.85,-8.71,0,*59
1537801689.56,26323,0.13,73384.3,-7.73,-8.81,-8.67,0,*5D
1537801690.82,26324,0.19,73390.3,-7.73,-8.81,-8.81,0,*52
1537801692.02,26325,0.19,73380.0,-7.75,-8.97,-8.75,0,*59
1537801693.21,26326,0.19,73378.8,-7.75,-8.97,-8.75,0,*5A
1537801694.41,26327,0.19,73370.8,-7.75,-8.97,-8.85,0,*54
1537801695.62,26328,0.19,73362.8,-7.75,-9.01,-8.97,0,*56
1537801696.83,26329,0.13,73368.8,-7.75,-8.85,-8.89,0,*55
1537801698.04,26330,0.19,73372.8,-7.77,-8.75,-8.75,0,*53
1537801699.26,26331,0.19,73376.3,-7.77,-8.75,-8.75,0,*52
1537801700.48,26332,0.13,73376.0,-7.77,-8.85,-8.75,0,*5E
1537801701.71,26333,0.19,73380.0,-7.77,-8.71,-8.63,0,*53
1537801702.93,26334,0.19,73382.0,-7.77,-8.75,-8.75,0,*57
1537801704.14,26335,0.19,73372.0,-7.77,-8.75,-8.75,0,*56
1537801705.36,26336,0.19,73376.3,-7.77,-8.75,-8.71,0,*51
1537801706.55,26337,0.19,73378.8,-7.79,-8.67,-8.63,0,*5E
1537801707.78,26338,0.19,73380.3,-7.77,-8.71,-8.63,0,*58
1537801708.99,26339,0.19,73382.8,-7.77,-8.63,-8.59,0,*53
1537801710.21,26340,0.19,73382.8,-7.77,-8.63,-8.59,0,*5D
1537801711.43,26341,0.19,73382.3,-7.77,-8.63,-8.59,0,*5C
1537801712.65,26342,0.19,73380.0,-7.77,-8.55,-8.55,0,*56
1537801713.86,26343,0.19,73374.8,-7.77,-8.59,-8.55,0,*5B